Time,TemperatureF,DewpointF,PressureIn,WindDirection,WindDirectionDegrees,WindSpeedMPH,WindSpeedGustMPH,Humidity,HourlyPrecipIn,Conditions,Clouds,dailyrainin,SoftwareType,DateUTC
2013-01-04 00:15:00,27.4,19.0,30.51,SSE,163,0.0,3.0,70,0.00,,,0.00,weatherlink.com 1.10,2013-01-04 05:15:00,
2013-01-04 00:30:00,27.1,19.0,30.51,SSE,158,0.0,2.0,70,0.00,,,0.00,weatherlink.com 1.10,2013-01-04 05:30:00,
2013-01-04 00:45:00,26.7,17.0,30.51,SSE,159,3.0,3.0,68,0.00,,,0.00,weatherlink.com 1.10,2013-01-04 05:45:00,
2013-01-04 01:00:00,26.3,19.0,30.50,SSE,166,0.0,2.0,75,0.00,,,0.00,weatherlink.com 1.10,2013-01-04 06:00:00,
2013-01-04 01:15:00,25.5,19.0,30.49,SSE,166,0.0,2.0,77,0.00,,,0.00,weatherlink.com 1.10,2013-01-04 06:15:00,
2013-01-04 01:30:00,25.0,19.0,30.49,SSE,166,0.0,1.0,79,0.00,,,0.00,weatherlink.com 1.10,2013-01-04 06:30:00,
2013-01-04 01:45:00,25.0,19.0,30.50,SSE,166,1.0,1.0,79,0.00,,,0.00,weatherlink.com 1.10,2013-01-04 06:45:00,
2013-01-04 02:00:00,24.8,20.0,30.50,SSE,165,0.0,2.0,81,0.00,,,0.00,weatherlink.com 1.10,2013-01-04 07:00:00,
2013-01-04 02:15:00,25.0,19.0,30.50,SSE,166,0.0,3.0,77,0.00,,,0.00,weatherlink.com 1.10,2013-01-04 07:15:00,
2013-01-04 02:30:00,25.0,19.0,30.50,SSE,166,0.0,0.0,78,0.00,,,0.00,weatherlink.com 1.10,2013-01-04 07:30:00,
2013-01-04 02:45:00,24.4,20.0,30.51,SSE,166,0.0,2.0,82,0.00,,,0.00,weatherlink.com 1.10,2013-01-04 07:45:00,
2013-01-04 03:00:00,24.2,20.0,30.51,SSE,166,1.0,2.0,83,0.00,,,0.00,weatherlink.com 1.10,2013-01-04 08:00:00,
2013-01-04 03:15:00,24.0,20.0,30.52,SSE,166,2.0,2.0,83,0.00,,,0.00,weatherlink.com 1.10,2013-01-04 08:15:00,
2013-01-04 03:30:00,23.9,20.0,30.51,SSE,161,2.0,3.0,85,0.00,,,0.00,weatherlink.com 1.10,2013-01-04 08:30:00,
2013-01-04 03:45:00,24.0,21.0,30.50,SSE,160,1.0,2.0,88,0.00,,,0.00,weatherlink.com 1.10,2013-01-04 08:45:00,
2013-01-04 04:00:00,23.9,21.0,30.50,SSE,160,1.0,1.0,88,0.00,,,0.00,weatherlink.com 1.10,2013-01-04 09:00:00,
2013-01-04 04:15:00,23.8,21.0,30.50,SSE,158,2.0,4.0,89,0.00,,,0.00,weatherlink.com 1.10,2013-01-04 09:15:00,
2013-01-04 04:30:00,24.2,21.0,30.50,SSE,163,2.0,2.0,88,0.00,,,0.00,weatherlink.com 1.10,2013-01-04 09:30:00,
2013-01-04 04:45:00,24.5,21.0,30.50,South,169,1.0,2.0,87,0.00,,,0.00,weatherlink.com 1.10,2013-01-04 09:45:00,
2013-01-04 05:00:00,24.3,21.0,30.49,South,169,1.0,2.0,87,0.00,,,0.00,weatherlink.com 1.10,2013-01-04 10:00:00,
2013-01-04 05:15:00,24.0,21.0,30.50,SSE,168,1.0,2.0,89,0.00,,,0.00,weatherlink.com 1.10,2013-01-04 10:15:00,
2013-01-04 05:30:00,23.9,21.0,30.50,SSE,167,0.0,2.0,89,0.00,,,0.00,weatherlink.com 1.10,2013-01-04 10:30:00,
2013-01-04 05:45:00,24.0,21.0,30.50,SSE,167,2.0,3.0,89,0.00,,,0.00,weatherlink.com 1.10,2013-01-04 10:45:00,
2013-01-04 06:00:00,23.8,21.0,30.50,SSE,168,1.0,2.0,90,0.00,,,0.00,weatherlink.com 1.10,2013-01-04 11:00:00,
2013-01-04 06:15:00,23.7,21.0,30.51,SSE,167,1.0,2.0,90,0.00,,,0.00,weatherlink.com 1.10,2013-01-04 11:15:00,
2013-01-04 06:30:00,23.4,21.0,30.52,SSE,167,2.0,2.0,91,0.00,,,0.00,weatherlink.com 1.10,2013-01-04 11:30:00,
2013-01-04 06:45:00,23.2,21.0,30.52,SSE,160,0.0,2.0,91,0.00,,,0.00,weatherlink.com 1.10,2013-01-04 11:45:00,
2013-01-04 07:00:00,23.1,21.0,30.52,SSE,160,0.0,0.0,90,0.00,,,0.00,weatherlink.com 1.10,2013-01-04 12:00:00,
2013-01-04 07:15:00,22.9,20.0,30.53,SSE,160,0.0,1.0,90,0.00,,,0.00,weatherlink.com 1.10,2013-01-04 12:15:00,
2013-01-04 07:30:00,22.8,20.0,30.53,SSE,161,1.0,1.0,90,0.00,,,0.00,weatherlink.com 1.10,2013-01-04 12:30:00,
2013-01-04 07:45:00,22.7,21.0,30.54,SSE,161,1.0,2.0,91,0.00,,,0.00,weatherlink.com 1.10,2013-01-04 12:45:00,
2013-01-04 08:00:00,22.5,21.0,30.54,SSE,160,0.0,1.0,92,0.00,,,0.00,weatherlink.com 1.10,2013-01-04 13:00:00,
2013-01-04 08:15:00,22.1,20.0,30.55,SSE,160,0.0,0.0,92,0.00,,,0.00,weatherlink.com 1.10,2013-01-04 13:15:00,
2013-01-04 08:30:00,22.1,20.0,30.56,SSE,160,0.0,0.0,93,0.00,,,0.00,weatherlink.com 1.10,2013-01-04 13:30:00,
2013-01-04 08:45:00,23.0,21.0,30.56,SSE,160,0.0,1.0,93,0.00,,,0.00,weatherlink.com 1.10,2013-01-04 13:45:00,
2013-01-04 09:00:00,22.9,21.0,30.57,SSE,160,0.0,0.0,93,0.00,,,0.00,weatherlink.com 1.10,2013-01-04 14:00:00,
2013-01-04 09:15:00,23.2,22.0,30.57,SSE,160,0.0,0.0,93,0.00,,,0.00,weatherlink.com 1.10,2013-01-04 14:15:00,
2013-01-04 09:31:00,23.5,22.0,30.57,SSE,160,0.0,1.0,94,0.00,,,0.00,weatherlink.com 1.10,2013-01-04 14:31:00,
2013-01-04 09:46:00,24.0,22.0,30.57,SSE,160,0.0,0.0,93,0.00,,,0.00,weatherlink.com 1.10,2013-01-04 14:46:00,
2013-01-04 10:01:00,24.5,23.0,30.57,SSE,160,0.0,0.0,93,0.00,,,0.00,weatherlink.com 1.10,2013-01-04 15:01:00,
2013-01-04 10:16:00,25.4,23.0,30.58,SSE,161,0.0,2.0,91,0.00,,,0.00,weatherlink.com 1.10,2013-01-04 15:16:00,
2013-01-04 10:31:00,26.3,24.0,30.59,SSE,159,0.0,0.0,90,0.00,,,0.00,weatherlink.com 1.10,2013-01-04 15:31:00,
2013-01-04 10:46:00,27.3,25.0,30.59,SSE,159,0.0,0.0,89,0.00,,,0.00,weatherlink.com 1.10,2013-01-04 15:46:00,
2013-01-04 11:01:00,28.1,25.0,30.59,SSE,159,0.0,0.0,87,0.00,,,0.00,weatherlink.com 1.10,2013-01-04 16:01:00,
2013-01-04 11:16:00,29.5,26.0,30.58,SSE,158,0.0,0.0,86,0.00,,,0.00,weatherlink.com 1.10,2013-01-04 16:16:00,
2013-01-04 11:31:00,31.4,26.0,30.58,SSW,193,0.0,0.0,81,0.00,,,0.00,weatherlink.com 1.10,2013-01-04 16:31:00,
2013-01-04 11:46:00,32.9,27.0,30.57,ENE,60,0.0,0.0,80,0.00,,,0.00,weatherlink.com 1.10,2013-01-04 16:46:00,
2013-01-04 12:01:00,33.2,27.0,30.56,NE,39,0.0,2.0,79,0.00,,,0.00,weatherlink.com 1.10,2013-01-04 17:01:00,
2013-01-04 12:16:00,34.1,28.0,30.54,NNE,16,0.0,3.0,79,0.00,,,0.00,weatherlink.com 1.10,2013-01-04 17:16:00,
2013-01-04 12:31:00,34.9,29.0,30.54,ENE,70,0.0,0.0,78,0.00,,,0.00,weatherlink.com 1.10,2013-01-04 17:31:00,
2013-01-04 12:46:00,35.3,28.0,30.53,NNE,15,0.0,2.0,74,0.00,,,0.00,weatherlink.com 1.10,2013-01-04 17:46:00,
2013-01-04 13:00:00,35.7,27.0,30.53,East,80,1.0,2.0,72,0.00,,,0.00,weatherlink.com 1.10,2013-01-04 18:00:00,
2013-01-04 13:15:00,35.9,27.0,30.52,ESE,113,2.0,3.0,69,0.00,,,0.00,weatherlink.com 1.10,2013-01-04 18:15:00,
2013-01-04 13:31:00,36.8,28.0,30.51,North,358,0.0,1.0,71,0.00,,,0.00,weatherlink.com 1.10,2013-01-04 18:31:00,
2013-01-04 13:46:00,36.8,28.0,30.51,NE,56,0.0,1.0,70,0.00,,,0.00,weatherlink.com 1.10,2013-01-04 18:46:00,
2013-01-04 14:01:00,37.1,23.0,30.50,WNW,290,1.0,3.0,57,0.00,,,0.00,weatherlink.com 1.10,2013-01-04 19:01:00,
2013-01-04 14:31:00,37.6,23.0,30.49,WNW,285,0.0,1.0,55,0.00,,,0.00,weatherlink.com 1.10,2013-01-04 19:31:00,
2013-01-04 14:46:00,38.0,21.0,30.49,WNW,303,0.0,7.0,51,0.00,,,0.00,weatherlink.com 1.10,2013-01-04 19:46:00,
2013-01-04 15:01:00,37.8,20.0,30.49,NW,326,0.0,3.0,49,0.00,,,0.00,weatherlink.com 1.10,2013-01-04 20:01:00,
2013-01-04 15:16:00,37.6,20.0,30.49,SE,143,1.0,2.0,50,0.00,,,0.00,weatherlink.com 1.10,2013-01-04 20:16:00,
2013-01-04 15:31:00,37.3,18.0,30.50,SSW,208,1.0,4.0,45,0.00,,,0.00,weatherlink.com 1.10,2013-01-04 20:31:00,
2013-01-04 15:46:00,37.1,18.0,30.52,NE,44,4.0,9.0,46,0.00,,,0.00,weatherlink.com 1.10,2013-01-04 20:46:00,
2013-01-04 16:16:00,36.4,13.0,30.51,SE,131,0.0,4.0,38,0.00,,,0.00,weatherlink.com 1.10,2013-01-04 21:16:00,
2013-01-04 16:31:00,36.5,15.0,30.51,East,83,1.0,7.0,41,0.00,,,0.00,weatherlink.com 1.10,2013-01-04 21:31:00,
2013-01-04 16:46:00,35.2,17.0,30.50,SW,222,2.0,4.0,48,0.00,,,0.00,weatherlink.com 1.10,2013-01-04 21:46:00,
2013-01-04 17:01:00,34.7,16.0,30.51,SW,226,1.0,2.0,47,0.00,,,0.00,weatherlink.com 1.10,2013-01-04 22:01:00,
2013-01-04 17:16:00,34.2,16.0,30.52,SE,134,0.0,5.0,48,0.00,,,0.00,weatherlink.com 1.10,2013-01-04 22:16:00,
2013-01-04 17:31:00,33.5,16.0,30.52,SSE,162,2.0,3.0,49,0.00,,,0.00,weatherlink.com 1.10,2013-01-04 22:31:00,
2013-01-04 17:46:00,32.7,17.0,30.53,SSE,166,2.0,2.0,52,0.00,,,0.00,weatherlink.com 1.10,2013-01-04 22:46:00,
2013-01-04 18:01:00,31.8,17.0,30.54,SW,221,0.0,3.0,55,0.00,,,0.00,weatherlink.com 1.10,2013-01-04 23:01:00,
2013-01-04 18:16:00,31.1,19.0,30.55,SSE,158,2.0,3.0,60,0.00,,,0.00,weatherlink.com 1.10,2013-01-04 23:16:00,
2013-01-04 18:31:00,30.8,16.0,30.55,SW,224,2.0,3.0,55,0.00,,,0.00,weatherlink.com 1.10,2013-01-04 23:31:00,
2013-01-04 18:46:00,29.8,18.0,30.54,SSE,167,2.0,4.0,61,0.00,,,0.00,weatherlink.com 1.10,2013-01-04 23:46:00,
2013-01-04 19:01:00,29.8,15.0,30.54,SW,230,1.0,2.0,55,0.00,,,0.00,weatherlink.com 1.10,2013-01-05 00:01:00,
2013-01-04 19:16:00,29.1,15.0,30.55,SSW,210,1.0,2.0,56,0.00,,,0.00,weatherlink.com 1.10,2013-01-05 00:16:00,
2013-01-04 19:31:00,29.1,15.0,30.56,East,86,0.0,3.0,57,0.00,,,0.00,weatherlink.com 1.10,2013-01-05 00:31:00,
2013-01-04 19:46:00,29.4,15.0,30.56,North,4,0.0,2.0,55,0.00,,,0.00,weatherlink.com 1.10,2013-01-05 00:46:00,
2013-01-04 20:01:00,28.7,15.0,30.57,NNE,25,1.0,3.0,57,0.00,,,0.00,weatherlink.com 1.10,2013-01-05 01:01:00,
2013-01-04 20:16:00,28.9,17.0,30.57,South,190,0.0,6.0,61,0.00,,,0.00,weatherlink.com 1.10,2013-01-05 01:16:00,
2013-01-04 20:31:00,28.8,18.0,30.57,WNW,287,2.0,3.0,63,0.00,,,0.00,weatherlink.com 1.10,2013-01-05 01:31:00,
2013-01-04 20:46:00,27.6,18.0,30.57,SSW,208,1.0,3.0,68,0.00,,,0.00,weatherlink.com 1.10,2013-01-05 01:46:00,
2013-01-04 21:01:00,27.2,18.0,30.57,NNE,25,4.0,4.0,69,0.00,,,0.00,weatherlink.com 1.10,2013-01-05 02:01:00,
2013-01-04 21:16:00,27.3,18.0,30.57,SSE,167,0.0,3.0,69,0.00,,,0.00,weatherlink.com 1.10,2013-01-05 02:16:00,
2013-01-04 21:31:00,27.1,18.0,30.57,North,354,1.0,2.0,69,0.00,,,0.00,weatherlink.com 1.10,2013-01-05 02:31:00,
2013-01-04 21:46:00,27.3,19.0,30.57,South,170,0.0,3.0,70,0.00,,,0.00,weatherlink.com 1.10,2013-01-05 02:46:00,
2013-01-04 22:01:00,27.2,19.0,30.58,SW,229,2.0,4.0,71,0.00,,,0.00,weatherlink.com 1.10,2013-01-05 03:01:00,
2013-01-04 22:16:00,27.6,19.0,30.59,NE,39,0.0,4.0,70,0.00,,,0.00,weatherlink.com 1.10,2013-01-05 03:16:00,
2013-01-04 22:31:00,26.8,19.0,30.59,SSE,158,1.0,2.0,72,0.00,,,0.00,weatherlink.com 1.10,2013-01-05 03:31:00,
2013-01-04 22:46:00,25.9,19.0,30.59,SSW,194,2.0,2.0,75,0.00,,,0.00,weatherlink.com 1.10,2013-01-05 03:46:00,
2013-01-04 23:01:00,25.6,19.0,30.59,SSE,160,1.0,1.0,76,0.00,,,0.00,weatherlink.com 1.10,2013-01-05 04:01:00,
2013-01-04 23:16:00,25.2,19.0,30.60,South,169,0.0,2.0,77,0.00,,,0.00,weatherlink.com 1.10,2013-01-05 04:16:00,
2013-01-04 23:31:00,25.1,19.0,30.60,SE,143,1.0,3.0,79,0.00,,,0.00,weatherlink.com 1.10,2013-01-05 04:31:00,
2013-01-04 23:46:00,25.0,19.0,30.60,SE,127,1.0,3.0,79,0.00,,,0.00,weatherlink.com 1.10,2013-01-05 04:46:00,